Content
SEND FEEDBACK

Daily
Averages
Monthly
Summary
United States of America

RAPID CITY, SOUTH DAKOTA


Home > North America > United States > South Dakota
Elevation: 3162 feet     Latitude: 44 03N     Longitude: 103 04W

WEATHER
 
SELECT A DAY
Number of Records: 200,148;   Date Range: 1/1/95 - 7/7/14
 
SHARE

PRINT THIS DATA

[ ← Previous Day ]
WEATHER ALMANAC - JANUARY 24, 2013
[ Next Day → ]
[ °C ]   °F
Weather ElementAverageHighLow
Temperature24.5 °F41 °F (5:52 pm)8.1 °F (2:52 am)
Dewpoint14.3 °F23 °F (6:52 pm)5 °F (3:52 am)
Humidity67.7 %92 % (2:52 am)41 % (1:52 pm)
Barometer30.12 in30.24 in (1:52 am)29.99 in (12:52 pm)
Wind Speed7.8 mph17.3 mph (7:52 pm)
Weather ElementAverage
Visibility10 mi
Wind DirectionSSW (190.9 °)

Weather ElementTotal
Precipitation---
Heating Degree Days40.5 (Base 65)
Averaged from 23 records on January 24, 2013
WEATHER CONDITIONS BREAKOUT
WIND DIRECTION BREAKOUT
WEATHER BY HOUR - JANUARY 24, 2013
[ °C ]   °F
Local TimeTemperatureDewpointHumidityBarometerVisibilityWind DirectionWind SpeedGust SpeedPrecipitationEventsConditions
1:52 AM10.0 °F7.0 °F87 %30.24 in10.0 miSE (140°)11.5 mphClear
2:52 AM8.1 °F6.1 °F92 %30.20 in10.0 miSE (140°)8.1 mphClear
3:52 AM8.1 °F5.0 °F87 %30.17 in10.0 miESE (110°)5.8 mphClear
4:52 AM8.1 °F5.0 °F87 %30.14 in10.0 miESE (120°)3.5 mphClear
5:52 AM10.0 °F6.1 °F84 %30.12 in10.0 miEast (90°)4.6 mphClear
6:52 AM10.9 °F7.0 °F84 %30.12 in10.0 miCalmClear
7:52 AM10.9 °F8.1 °F88 %30.12 in10.0 miCalmClear
8:52 AM14.0 °F10.0 °F84 %30.10 in10.0 miCalmClear
9:52 AM17.1 °F12.0 °F81 %30.07 in10.0 miSE (140°)3.5 mphClear
10:52 AM21.9 °F12.9 °F68 %30.07 in10.0 miNorth (360°)5.8 mphClear
11:52 AM28.0 °F14.0 °F56 %30.04 in10.0 miCalmClear
12:52 PM33.1 °F15.1 °F48 %29.99 in10.0 miNorth (360°)5.8 mphClear
1:52 PM37.9 °F16.0 °F41 %29.99 in10.0 miNorth (10°)6.9 mphClear
2:52 PM35.1 °F17.1 °F48 %30.04 in10.0 miNorth (10°)8.1 mphClear
3:52 PM36.0 °F19.0 °F50 %30.06 in10.0 miNorth (350°)12.7 mphClear
4:52 PM39.9 °F19.9 °F45 %30.07 in10.0 miNNW (330°)16.1 mphPartly Cloudy
5:52 PM41.0 °F21.9 °F47 %30.10 in10.0 miNNW (330°)16.1 mphMostly Cloudy
6:52 PM36.0 °F23.0 °F59 %30.14 in10.0 miNorth (350°)15.0 mphClear
7:52 PM35.1 °F21.9 °F59 %30.17 in10.0 miNNW (330°)17.3 mphClear
8:52 PM34.0 °F21.9 °F61 %30.18 in10.0 miNNW (330°)13.8 mphClear
9:52 PM30.0 °F19.9 °F66 %30.19 in10.0 miNW (310°)8.1 mphClear
10:52 PM30.0 °F19.9 °F66 %30.20 in10.0 miWNW (300°)11.5 mphClear
11:52 PM28.9 °F19.9 °F69 %30.19 in10.0 miWest (280°)4.6 mphClear
Hourly data recorded from KRAP, located miles away from Rapid City, South Dakota







STORIES FROM OUR PARTNERS